Location: DaltonSkyGazer Observatory
(42.4858°N, 73.1565°W)
Time: 05:14:22
(UTC-04:00)

Helios 1B - Visible Passes

Search period start: 06 July 2015 00:00
Search period end: 16 July 2015 00:00
Orbit: 622 x 626 km, 98.1° (Epoch: 06 July)

Date Brightness Start Highest point End Pass type
(mag) Time Alt. Az. Time Alt. Az. Time Alt. Az.
06 Jul 6.3 00:47:45 22° W 00:47:45 22° W 00:51:01 10° NW visible
06 Jul 4.9 23:29:21 49° ESE 23:29:54 53° ENE 23:34:09 10° N visible
07 Jul 6.8 01:06:36 14° W 01:06:36 14° W 01:08:45 10° WNW visible
07 Jul 4.4 23:48:12 77° SE 23:48:28 85° ENE 23:52:50 10° NNW visible
08 Jul 6.7 22:29:47 12° E 22:31:20 14° ENE 22:33:40 10° NNE visible
09 Jul 4.7 00:07:02 60° WSW 00:07:05 60° W 00:11:25 10° NNW visible
09 Jul 6.3 22:48:38 19° E 22:49:46 21° ENE 22:53:04 10° NNE visible
10 Jul 5.5 00:25:53 37° W 00:25:53 37° W 00:29:49 10° NNW visible
10 Jul 5.7 23:07:29 29° E 23:08:15 31° ENE 23:12:07 10° N visible
11 Jul 6.2 00:44:44 24° W 00:44:44 24° W 00:48:01 10° NW visible
11 Jul 5.0 23:26:19 46° E 23:26:46 48° ENE 23:30:59 10° N visible
12 Jul 6.8 01:03:35 15° W 01:03:35 15° W 01:05:50 10° NW visible
12 Jul 4.4 23:45:10 76° ESE 23:45:20 77° ENE 23:49:41 10° N visible
13 Jul 6.8 22:26:46 11° E 22:28:13 13° ENE 22:30:15 10° NE visible
14 Jul 4.7 00:04:01 67° W 00:04:01 67° W 00:08:16 10° NNW visible
14 Jul 6.3 22:45:36 18° E 22:46:38 19° ENE 22:49:47 10° NNE visible
15 Jul 5.4 00:22:52 41° W 00:22:52 41° W 00:26:42 10° NNW visible
15 Jul 5.8 23:04:27 27° E 23:05:07 28° ENE 23:08:52 10° N visible
